When you browse on this site, cookies collect data to enhance your experience and personalize the content and advertising you see.
Visit our Privacy Policy to learn more. By continuing to use the site, you agree to this use of cookies and data.
  • In Hungary
  • List of Countries
  • For 7 days
  • Water Temperature
  • Satellite Maps
  • Weather Map
  • News
  • Weather Widgets
  • user-avatar
    Login

    Hourly Weather Libourne

    Today, 18 March, Monday

    Time Temperature Precipitation Wind Pressure Humidity
    00:00 +6°C° 0 mm 1 mps 764 mmHg 87%
    01:00 +5°C° 0 mm 1 mps 764 mmHg 88%
    02:00 +5°C° 0 mm 1 mps 764 mmHg 89%
    03:00 +5°C° 0 mm 1 mps 765 mmHg 90%
    04:00 +5°C° 0 mm 1 mps 765 mmHg 90%
    05:00 +5°C° 0 mm 1 mps 765 mmHg 90%
    06:00 +3°C° 0 mm 0 mps 765 mmHg 89%
    07:00 +6°C° 0 mm 1 mps 766 mmHg 81%
    08:00 +9°C° 0 mm 1 mps 766 mmHg 73%
    09:00 +11°C° 0 mm 1 mps 766 mmHg 64%
    10:00 +12°C° 0 mm 2 mps 766 mmHg 60%
    11:00 +13°C° 0 mm 2 mps 766 mmHg 56%
    12:00 +13°C° 0 mm 3 mps 766 mmHg 52%
    13:00 +13°C° 0.1 mm 3 mps 765 mmHg 52%
    14:00 +13°C° 0.1 mm 4 mps 765 mmHg 53%
    15:00 +13°C° 0.1 mm 4 mps 765 mmHg 53%
    16:00 +12°C° 0 mm 4 mps 765 mmHg 58%
    17:00 +11°C° 0 mm 3 mps 765 mmHg 63%
    18:00 +10°C° 0 mm 3 mps 765 mmHg 68%
    19:00 +9°C° 0.1 mm 2 mps 765 mmHg 73%
    20:00 +8°C° 0.1 mm 2 mps 766 mmHg 79%
    21:00 +8°C° 0.1 mm 2 mps 766 mmHg 84%
    22:00 +7°C° 0.1 mm 2 mps 766 mmHg 87%
    23:00 +8°C° 0.1 mm 1 mps 766 mmHg 90%

    Tomorrow, 19 March, Tuesday

    Time Temperature Precipitation Wind Pressure Humidity
    00:00 +8°C° 0.1 mm 1 mps 766 mmHg 92%
    01:00 +7°C° 0 mm 1 mps 766 mmHg 94%
    02:00 +6°C° 0 mm 1 mps 766 mmHg 95%
    03:00 +6°C° 0 mm 1 mps 766 mmHg 96%
    04:00 +6°C° 0 mm 1 mps 766 mmHg 96%
    05:00 +5°C° 0 mm 1 mps 766 mmHg 96%
    06:00 +5°C° 0 mm 1 mps 766 mmHg 97%
    07:00 +6°C° 0 mm 1 mps 767 mmHg 91%
    08:00 +7°C° 0 mm 2 mps 767 mmHg 86%
    09:00 +8°C° 0 mm 2 mps 767 mmHg 81%
    10:00 +10°C° 0 mm 2 mps 767 mmHg 72%
    11:00 +12°C° 0 mm 2 mps 768 mmHg 64%
    12:00 +13°C° 0 mm 3 mps 768 mmHg 56%
    13:00 +13°C° 0 mm 3 mps 768 mmHg 55%
    14:00 +13°C° 0 mm 3 mps 767 mmHg 54%
    15:00 +13°C° 0 mm 3 mps 767 mmHg 53%
    16:00 +12°C° 0 mm 3 mps 767 mmHg 59%
    17:00 +11°C° 0 mm 3 mps 768 mmHg 66%
    18:00 +10°C° 0 mm 2 mps 768 mmHg 72%
    19:00 +9°C° 0 mm 2 mps 768 mmHg 77%
    20:00 +8°C° 0 mm 2 mps 769 mmHg 82%
    21:00 +7°C° 0 mm 2 mps 770 mmHg 87%
    22:00 +6°C° 0 mm 2 mps 770 mmHg 88%
    23:00 +6°C° 0 mm 2 mps 770 mmHg 89%

    Day after tomorrow, 20 March, Wednesday

    Time Temperature Precipitation Wind Pressure Humidity
    00:00 +5°C° 0 mm 2 mps 770 mmHg 90%
    01:00 +5°C° 0 mm 2 mps 770 mmHg 89%
    02:00 +5°C° 0 mm 1 mps 770 mmHg 89%
    03:00 +5°C° 0 mm 1 mps 770 mmHg 88%
    04:00 +5°C° 0 mm 1 mps 770 mmHg 88%
    05:00 +5°C° 0 mm 1 mps 770 mmHg 88%
    06:00 +4°C° 0 mm 1 mps 770 mmHg 88%
    07:00 +5°C° 0 mm 2 mps 770 mmHg 79%
    08:00 +7°C° 0 mm 2 mps 770 mmHg 70%
    09:00 +9°C° 0 mm 2 mps 771 mmHg 61%
    10:00 +12°C° 0 mm 2 mps 770 mmHg 54%
    11:00 +12°C° 0 mm 3 mps 770 mmHg 47%
    12:00 +14°C° 0 mm 3 mps 770 mmHg 40%
    13:00 +14°C° 0 mm 3 mps 770 mmHg 40%
    14:00 +14°C° 0 mm 3 mps 769 mmHg 40%
    15:00 +16°C° 0 mm 3 mps 769 mmHg 40%
    16:00 +13°C° 0 mm 3 mps 769 mmHg 47%
    17:00 +12°C° 0 mm 3 mps 769 mmHg 54%
    18:00 +12°C° 0 mm 2 mps 769 mmHg 62%
    19:00 +10°C° 0 mm 3 mps 769 mmHg 64%
    20:00 +9°C° 0 mm 3 mps 769 mmHg 66%
    21:00 +8°C° 0 mm 3 mps 770 mmHg 68%
    22:00 +7°C° 0 mm 3 mps 770 mmHg 71%
    23:00 +6°C° 0 mm 2 mps 770 mmHg 73%

    21 March, Thursday

    Time Temperature Precipitation Wind Pressure Humidity
    00:00 +6°C° 0 mm 2 mps 769 mmHg 76%
    01:00 +5°C° 0 mm 2 mps 769 mmHg 78%
    02:00 +5°C° 0 mm 1 mps 769 mmHg 80%
    03:00 +5°C° 0 mm 1 mps 769 mmHg 82%
    04:00 +4°C° 0 mm 1 mps 769 mmHg 84%
    05:00 +4°C° 0 mm 1 mps 769 mmHg 85%
    06:00 +4°C° 0 mm 1 mps 769 mmHg 86%
    07:00 +6°C° 0 mm 1 mps 769 mmHg 77%
    08:00 +8°C° 0 mm 1 mps 769 mmHg 69%
    09:00 +10°C° 0 mm 1 mps 770 mmHg 60%
    10:00 +12°C° 0 mm 1 mps 769 mmHg 55%
    11:00 +15°C° 0 mm 1 mps 769 mmHg 49%
    12:00 +16°C° 0 mm 0 mps 769 mmHg 43%
    13:00 +16°C° 0 mm 0 mps 769 mmHg 42%
    14:00 +16°C° 0 mm 0 mps 768 mmHg 40%
    15:00 +17°C° 0 mm 0 mps 768 mmHg 38%
    16:00 +16°C° 0 mm 1 mps 768 mmHg 44%
    17:00 +14°C° 0 mm 1 mps 768 mmHg 50%
    18:00 +12°C° 0 mm 1 mps 768 mmHg 56%
    19:00 +11°C° 0 mm 1 mps 768 mmHg 58%
    20:00 +10°C° 0 mm 1 mps 769 mmHg 61%
    21:00 +9°C° 0 mm 1 mps 769 mmHg 64%
    22:00 +9°C° 0 mm 1 mps 769 mmHg 68%
    23:00 +8°C° 0 mm 1 mps 769 mmHg 72%

    22 March, Friday

    Time Temperature Precipitation Wind Pressure Humidity
    00:00 +8°C° 0 mm 1 mps 769 mmHg 76%
    01:00 +7°C° 0 mm 1 mps 769 mmHg 78%
    02:00 +7°C° 0 mm 1 mps 769 mmHg 80%
    03:00 +6°C° 0 mm 0 mps 769 mmHg 82%
    04:00 +5°C° 0 mm 0 mps 769 mmHg 83%
    05:00 +5°C° 0 mm 0 mps 769 mmHg 84%
    06:00 +5°C° 0 mm 0 mps 769 mmHg 85%
    07:00 +7°C° 0 mm 0 mps 769 mmHg 77%
    08:00 +9°C° 0 mm 0 mps 770 mmHg 69%
    09:00 +13°C° 0 mm 1 mps 770 mmHg 61%
    10:00 +15°C° 0 mm 1 mps 770 mmHg 56%
    11:00 +16°C° 0 mm 1 mps 769 mmHg 50%
    12:00 +19°C° 0 mm 1 mps 769 mmHg 44%
    13:00 +20°C° 0 mm 1 mps 768 mmHg 43%
    14:00 +20°C° 0 mm 1 mps 768 mmHg 41%
    15:00 +20°C° 0 mm 1 mps 767 mmHg 40%
    16:00 +19°C° 0 mm 1 mps 767 mmHg 46%
    17:00 +16°C° 0 mm 1 mps 767 mmHg 52%
    18:00 +14°C° 0 mm 1 mps 767 mmHg 59%
    19:00 +13°C° 0 mm 1 mps 767 mmHg 62%
    20:00 +12°C° 0 mm 1 mps 767 mmHg 65%
    21:00 +11°C° 0 mm 1 mps 768 mmHg 69%
    22:00 +10°C° 0 mm 1 mps 768 mmHg 70%
    23:00 +10°C° 0 mm 1 mps 767 mmHg 72%

    23 March, Saturday

    Time Temperature Precipitation Wind Pressure Humidity
    00:00 +8°C° 0 mm 0 mps 767 mmHg 74%
    01:00 +9°C° 0 mm 1 mps 767 mmHg 74%
    02:00 +9°C° 0 mm 1 mps 767 mmHg 75%
    03:00 +9°C° 0 mm 1 mps 767 mmHg 76%
    04:00 +8°C° 0 mm 1 mps 767 mmHg 77%
    05:00 +8°C° 0 mm 1 mps 767 mmHg 79%
    06:00 +7°C° 0 mm 2 mps 767 mmHg 80%
    07:00 +9°C° 0 mm 2 mps 767 mmHg 74%
    08:00 +12°C° 0 mm 2 mps 766 mmHg 69%
    09:00 +14°C° 0 mm 2 mps 766 mmHg 63%
    10:00 +16°C° 0 mm 2 mps 766 mmHg 57%
    11:00 +18°C° 0 mm 2 mps 766 mmHg 51%
    12:00 +20°C° 0 mm 2 mps 766 mmHg 45%
    13:00 +20°C° 0 mm 2 mps 765 mmHg 43%
    14:00 +21°C° 0 mm 2 mps 765 mmHg 41%
    15:00 +21°C° 0 mm 2 mps 765 mmHg 39%
    16:00 +20°C° 0 mm 2 mps 765 mmHg 45%
    17:00 +18°C° 0 mm 2 mps 764 mmHg 51%
    18:00 +16°C° 0 mm 1 mps 764 mmHg 57%
    19:00 +15°C° 0 mm 1 mps 765 mmHg 59%
    20:00 +14°C° 0 mm 1 mps 765 mmHg 60%
    21:00 +13°C° 0 mm 1 mps 765 mmHg 61%
    22:00 +12°C° 0 mm 1 mps 765 mmHg 63%
    23:00 +12°C° 0 mm 2 mps 766 mmHg 65%
    Show more